2017-008AS

Last updated on Tue Feb 28 2017 00:15:03 GMT+0000 (Coordinated Universal Time)

1 41988U 17008AS 17058.89624560 .00001494 00000-0 69184-4 0 9997 2 41988 97.5107 120.5063 0007130 209.2409 150.8422 15.21681344 1238
UTC large
Height (km)
Speed (km/s)
/
Latitude / Longitude
Inclination (degrees)
Orbital Period (minutes)
Azimuth
Elevation
Range (km)
Doppler Factor

Next 0 passes for location: London (51.5072 / 0.1276)

Sorry there are no passes over London.